TimeCDT,TemperatureF,Dew PointF,Humidity,Sea Level PressureIn,VisibilityMPH,Wind Direction,Wind SpeedMPH,Gust SpeedMPH,PrecipitationIn,Events,Conditions,WindDirDegrees,DateUTC
12:15 AM,62.6,48.2,59,30.06,10.0,SE,9.2,-,N/A,,Clear,140,2013-09-15 05:15:00
12:35 AM,60.8,48.2,63,30.06,10.0,SE,9.2,-,N/A,,Clear,140,2013-09-15 05:35:00
12:55 AM,59.0,50.0,72,30.06,10.0,SE,8.1,-,N/A,,Clear,140,2013-09-15 05:55:00
1:15 AM,59.0,48.2,67,30.05,10.0,SE,8.1,-,N/A,,Clear,140,2013-09-15 06:15:00
1:35 AM,59.0,48.2,67,30.06,10.0,Calm,Calm,-,N/A,,Clear,0,2013-09-15 06:35:00
1:55 AM,59.0,48.2,67,30.06,10.0,Calm,Calm,-,N/A,,Clear,0,2013-09-15 06:55:00
2:15 AM,59.0,48.2,67,30.05,10.0,Calm,Calm,-,N/A,,Clear,0,2013-09-15 07:15:00
2:35 AM,57.2,48.2,72,30.05,10.0,Calm,Calm,-,N/A,,Clear,0,2013-09-15 07:35:00
2:55 AM,57.2,48.2,72,30.05,10.0,Calm,Calm,-,N/A,,Clear,0,2013-09-15 07:55:00
3:15 AM,59.0,48.2,67,30.05,10.0,SSE,6.9,-,N/A,,Clear,160,2013-09-15 08:15:00
3:35 AM,59.0,48.2,67,30.05,10.0,SSE,6.9,-,N/A,,Clear,150,2013-09-15 08:35:00
3:55 AM,59.0,48.2,67,30.05,10.0,Calm,Calm,-,N/A,,Clear,0,2013-09-15 08:55:00
4:15 AM,57.2,48.2,72,30.05,10.0,SSE,4.6,-,N/A,,Clear,160,2013-09-15 09:15:00
4:35 AM,57.2,48.2,72,30.05,10.0,SSE,6.9,-,N/A,,Clear,150,2013-09-15 09:35:00
4:55 AM,59.0,46.4,63,30.05,10.0,SSE,3.5,-,N/A,,Clear,160,2013-09-15 09:55:00
5:15 AM,57.2,46.4,67,30.06,10.0,Calm,Calm,-,N/A,,Clear,0,2013-09-15 10:15:00
5:35 AM,57.2,46.4,67,30.06,10.0,Calm,Calm,-,N/A,,Clear,0,2013-09-15 10:35:00
5:55 AM,57.2,46.4,67,30.06,10.0,Calm,Calm,-,N/A,,Clear,0,2013-09-15 10:55:00
6:15 AM,57.2,46.4,67,30.07,10.0,Calm,Calm,-,N/A,,Clear,0,2013-09-15 11:15:00
6:35 AM,55.4,46.4,72,30.07,10.0,Calm,Calm,-,N/A,,Clear,0,2013-09-15 11:35:00
6:50 AM,55.4,46.4,72,30.07,10.0,SE,5.8,-,N/A,,Partly Cloudy,130,2013-09-15 11:50:00
7:50 AM,59.0,46.4,63,30.08,10.0,ESE,4.6,-,N/A,,Partly Cloudy,120,2013-09-15 12:50:00
8:48 AM,64.4,51.8,64,29.77,10.0,Calm,Calm,-,N/A,,Clear,0,2013-09-15 13:48:00
8:50 AM,64.4,48.2,56,30.09,10.0,Calm,Calm,-,N/A,,Clear,0,2013-09-15 13:50:00
9:50 AM,68.0,50.0,52,30.10,10.0,South,4.6,-,N/A,,Partly Cloudy,180,2013-09-15 14:50:00
10:45 AM,73.4,53.6,50,30.11,10.0,Calm,Calm,-,N/A,,Partly Cloudy,0,2013-09-15 15:45:00
11:53 AM,78.8,55.4,44,30.10,10.0,South,5.8,-,N/A,,Partly Cloudy,180,2013-09-15 16:53:00
12:58 PM,82.4,57.2,42,30.09,10.0,South,6.9,-,N/A,,Partly Cloudy,180,2013-09-15 17:58:00
1:45 PM,84.2,57.2,40,30.08,10.0,SSW,5.8,-,N/A,,Mostly Cloudy,200,2013-09-15 18:45:00
3:52 PM,86.0,59.0,40,30.05,10.0,SW,5.8,-,N/A,,Mostly Cloudy,220,2013-09-15 20:52:00
4:47 PM,86.0,59.0,40,30.05,10.0,South,5.8,-,N/A,,Mostly Cloudy,190,2013-09-15 21:47:00
5:48 PM,84.2,59.0,42,30.06,10.0,SSE,5.8,-,N/A,,Mostly Cloudy,160,2013-09-15 22:48:00
6:50 PM,80.6,62.6,54,30.06,10.0,SE,6.9,-,N/A,,Mostly Cloudy,130,2013-09-15 23:50:00
7:46 PM,78.8,60.8,54,30.06,10.0,SE,6.9,-,N/A,,Mostly Cloudy,140,2013-09-16 00:46:00
8:46 PM,75.2,60.8,61,30.08,10.0,SSE,6.9,-,N/A,,Mostly Cloudy,150,2013-09-16 01:46:00
9:15 PM,75.2,60.8,61,30.08,10.0,SE,8.1,-,N/A,,Clear,140,2013-09-16 02:15:00
9:35 PM,75.2,59.0,57,30.08,10.0,SE,5.8,-,N/A,,Clear,140,2013-09-16 02:35:00
9:55 PM,73.4,59.0,61,30.08,10.0,SE,5.8,-,N/A,,Clear,140,2013-09-16 02:55:00
10:15 PM,73.4,59.0,61,30.09,10.0,SSE,4.6,-,N/A,,Partly Cloudy,160,2013-09-16 03:15:00
10:35 PM,73.4,59.0,61,30.08,10.0,SSE,5.8,-,N/A,,Clear,160,2013-09-16 03:35:00
10:55 PM,73.4,60.8,65,30.09,10.0,South,4.6,-,N/A,,Clear,170,2013-09-16 03:55:00
11:15 PM,73.4,60.8,65,30.09,10.0,South,4.6,-,N/A,,Clear,170,2013-09-16 04:15:00
11:35 PM,71.6,60.8,69,30.09,10.0,South,5.8,-,N/A,,Clear,170,2013-09-16 04:35:00
11:55 PM,71.6,60.8,69,30.09,10.0,South,3.5,-,N/A,,Clear,170,2013-09-16 04:55:00